When you browse on this site, cookies collect data to enhance your experience and personalize the content and advertising you see.
Visit our Privacy Policy to learn more. By continuing to use the site, you agree to this use of cookies and data.
  • En España
  • Lista de países
  • Para 7 días
  • Temperatura del agua
  • El tiempo en el mapa
  • Informadores
  • user-avatar
    Iniciar sesión

    Tiempo cada hora Semey

    Hoy, 27 Mayo, Miércoles

    Tiempo Temperatura Precipitaciones Viento Presión Humedad
    00:00 +23°C° 0 mm 5 mps 743 mmHg 38%
    01:00 +21°C° 0 mm 6 mps 743 mmHg 47%
    02:00 +20°C° 0 mm 6 mps 743 mmHg 56%
    03:00 +19°C° 0 mm 6 mps 744 mmHg 58%
    04:00 +17°C° 0 mm 6 mps 744 mmHg 59%
    05:00 +17°C° 0 mm 5 mps 745 mmHg 62%
    06:00 +16°C° 0 mm 6 mps 745 mmHg 61%
    07:00 +16°C° 0 mm 7 mps 746 mmHg 59%
    08:00 +16°C° 0 mm 7 mps 746 mmHg 58%
    09:00 +17°C° 0 mm 7 mps 746 mmHg 54%
    10:00 +18°C° 0 mm 7 mps 747 mmHg 49%
    11:00 +20°C° 0 mm 7 mps 747 mmHg 45%
    12:00 +20°C° 0 mm 8 mps 747 mmHg 43%
    13:00 +20°C° 0 mm 8 mps 747 mmHg 42%
    14:00 +21°C° 0 mm 8 mps 747 mmHg 40%
    15:00 +20°C° 0 mm 8 mps 747 mmHg 39%
    16:00 +20°C° 0 mm 7 mps 747 mmHg 38%
    17:00 +20°C° 0 mm 7 mps 746 mmHg 36%
    18:00 +19°C° 0 mm 6 mps 747 mmHg 37%
    19:00 +17°C° 0 mm 5 mps 747 mmHg 37%
    20:00 +15°C° 0 mm 5 mps 747 mmHg 38%
    21:00 +14°C° 0 mm 5 mps 747 mmHg 42%
    22:00 +13°C° 0 mm 4 mps 747 mmHg 46%
    23:00 +13°C° 0 mm 4 mps 747 mmHg 50%

    Mañana, 28 Mayo, Jueves

    Tiempo Temperatura Precipitaciones Viento Presión Humedad
    00:00 +12°C° 0 mm 4 mps 747 mmHg 53%
    01:00 +11°C° 0 mm 4 mps 747 mmHg 57%
    02:00 +10°C° 0 mm 3 mps 747 mmHg 61%
    03:00 +10°C° 0 mm 4 mps 748 mmHg 61%
    04:00 +10°C° 0 mm 4 mps 748 mmHg 62%
    05:00 +10°C° 0 mm 4 mps 748 mmHg 62%
    06:00 +12°C° 0 mm 5 mps 748 mmHg 56%
    07:00 +13°C° 0 mm 5 mps 748 mmHg 50%
    08:00 +15°C° 0 mm 6 mps 748 mmHg 44%
    09:00 +16°C° 0 mm 6 mps 748 mmHg 40%
    10:00 +17°C° 0 mm 6 mps 748 mmHg 37%
    11:00 +19°C° 0 mm 6 mps 747 mmHg 33%
    12:00 +20°C° 0 mm 6 mps 747 mmHg 31%
    13:00 +21°C° 0 mm 6 mps 747 mmHg 30%
    14:00 +22°C° 0 mm 6 mps 746 mmHg 28%
    15:00 +21°C° 0 mm 6 mps 746 mmHg 29%
    16:00 +21°C° 0 mm 6 mps 746 mmHg 29%
    17:00 +21°C° 0 mm 6 mps 746 mmHg 30%
    18:00 +19°C° 0 mm 5 mps 746 mmHg 34%
    19:00 +18°C° 0 mm 4 mps 746 mmHg 38%
    20:00 +16°C° 0 mm 3 mps 746 mmHg 42%
    21:00 +14°C° 0 mm 3 mps 746 mmHg 45%
    22:00 +13°C° 0 mm 3 mps 746 mmHg 48%
    23:00 +13°C° 0 mm 3 mps 746 mmHg 51%

    Pasado mañana, 29 Mayo, Viernes

    Tiempo Temperatura Precipitaciones Viento Presión Humedad
    00:00 +12°C° 0 mm 3 mps 745 mmHg 53%
    01:00 +13°C° 0 mm 2 mps 745 mmHg 55%
    02:00 +12°C° 0 mm 2 mps 745 mmHg 58%
    03:00 +12°C° 0 mm 2 mps 745 mmHg 57%
    04:00 +13°C° 0 mm 2 mps 745 mmHg 56%
    05:00 +13°C° 0 mm 2 mps 745 mmHg 56%
    06:00 +14°C° 0 mm 3 mps 745 mmHg 50%
    07:00 +17°C° 0 mm 4 mps 745 mmHg 44%
    08:00 +19°C° 0 mm 5 mps 745 mmHg 38%
    09:00 +20°C° 0 mm 5 mps 744 mmHg 36%
    10:00 +21°C° 0 mm 5 mps 744 mmHg 33%
    11:00 +22°C° 0 mm 5 mps 744 mmHg 31%
    12:00 +23°C° 0 mm 5 mps 743 mmHg 31%
    13:00 +25°C° 0 mm 4 mps 743 mmHg 30%
    14:00 +26°C° 0 mm 4 mps 743 mmHg 30%
    15:00 +26°C° 0 mm 4 mps 743 mmHg 30%
    16:00 +26°C° 0 mm 4 mps 742 mmHg 31%
    17:00 +26°C° 0 mm 4 mps 742 mmHg 31%
    18:00 +24°C° 0 mm 3 mps 742 mmHg 36%
    19:00 +21°C° 0 mm 3 mps 742 mmHg 41%
    20:00 +20°C° 0 mm 2 mps 742 mmHg 45%
    21:00 +19°C° 0 mm 2 mps 741 mmHg 47%
    22:00 +18°C° 0 mm 2 mps 741 mmHg 48%
    23:00 +18°C° 0 mm 3 mps 741 mmHg 49%

    30 Mayo, Sábado

    Tiempo Temperatura Precipitaciones Viento Presión Humedad
    00:00 +17°C° 0 mm 3 mps 740 mmHg 50%
    01:00 +17°C° 0 mm 3 mps 740 mmHg 51%
    02:00 +17°C° 0 mm 3 mps 740 mmHg 52%
    03:00 +17°C° 0 mm 3 mps 740 mmHg 52%
    04:00 +18°C° 0 mm 2 mps 740 mmHg 52%
    05:00 +18°C° 0 mm 2 mps 740 mmHg 51%
    06:00 +20°C° 0 mm 3 mps 740 mmHg 45%
    07:00 +24°C° 0 mm 3 mps 740 mmHg 39%
    08:00 +26°C° 0 mm 3 mps 740 mmHg 32%
    09:00 +25°C° 0.1 mm 4 mps 740 mmHg 37%
    10:00 +23°C° 0.1 mm 5 mps 740 mmHg 42%
    11:00 +22°C° 0.1 mm 7 mps 740 mmHg 47%
    12:00 +23°C° 0.1 mm 6 mps 740 mmHg 45%
    13:00 +24°C° 0.1 mm 6 mps 740 mmHg 42%
    14:00 +26°C° 0.1 mm 5 mps 740 mmHg 39%
    15:00 +26°C° 0 mm 5 mps 740 mmHg 39%
    16:00 +26°C° 0 mm 5 mps 740 mmHg 38%
    17:00 +26°C° 0 mm 5 mps 740 mmHg 37%
    18:00 +23°C° 0 mm 5 mps 740 mmHg 38%
    19:00 +22°C° 0 mm 4 mps 740 mmHg 38%
    20:00 +20°C° 0 mm 3 mps 740 mmHg 38%
    21:00 +19°C° 0 mm 3 mps 740 mmHg 40%
    22:00 +19°C° 0 mm 2 mps 741 mmHg 41%
    23:00 +18°C° 0 mm 2 mps 741 mmHg 43%

    31 Mayo, Domingo

    Tiempo Temperatura Precipitaciones Viento Presión Humedad
    00:00 +17°C° 0 mm 2 mps 741 mmHg 44%
    01:00 +17°C° 0 mm 2 mps 741 mmHg 45%
    02:00 +17°C° 0 mm 2 mps 740 mmHg 46%
    03:00 +17°C° 0 mm 2 mps 741 mmHg 47%
    04:00 +17°C° 0 mm 2 mps 741 mmHg 47%
    05:00 +18°C° 0 mm 2 mps 741 mmHg 48%
    06:00 +20°C° 0 mm 3 mps 741 mmHg 43%
    07:00 +22°C° 0 mm 3 mps 741 mmHg 37%
    08:00 +25°C° 0 mm 3 mps 741 mmHg 32%
    09:00 +26°C° 0 mm 4 mps 741 mmHg 30%
    10:00 +27°C° 0 mm 4 mps 741 mmHg 28%
    11:00 +28°C° 0 mm 4 mps 740 mmHg 26%
    12:00 +29°C° 0 mm 4 mps 740 mmHg 25%
    13:00 +30°C° 0 mm 4 mps 740 mmHg 23%
    14:00 +32°C° 0 mm 4 mps 739 mmHg 22%
    15:00 +32°C° 0 mm 4 mps 739 mmHg 21%
    16:00 +32°C° 0 mm 4 mps 739 mmHg 21%
    17:00 +31°C° 0 mm 3 mps 738 mmHg 20%
    18:00 +29°C° 0 mm 3 mps 738 mmHg 24%
    19:00 +27°C° 0 mm 3 mps 738 mmHg 27%
    20:00 +25°C° 0 mm 2 mps 738 mmHg 31%
    21:00 +24°C° 0 mm 2 mps 738 mmHg 34%
    22:00 +22°C° 0 mm 3 mps 738 mmHg 36%
    23:00 +22°C° 0 mm 3 mps 738 mmHg 39%

    1 Junio, Lunes

    Tiempo Temperatura Precipitaciones Viento Presión Humedad
    00:00 +21°C° 0 mm 3 mps 738 mmHg 42%
    01:00 +21°C° 0 mm 3 mps 738 mmHg 45%
    02:00 +21°C° 0 mm 3 mps 738 mmHg 48%
    03:00 +20°C° 0 mm 3 mps 738 mmHg 53%
    04:00 +20°C° 0 mm 3 mps 738 mmHg 58%
    05:00 +19°C° 0 mm 3 mps 738 mmHg 63%
    06:00 +21°C° 0 mm 3 mps 738 mmHg 57%
    07:00 +23°C° 0 mm 2 mps 738 mmHg 51%
    08:00 +25°C° 0 mm 2 mps 738 mmHg 45%
    09:00 +26°C° 0 mm 2 mps 738 mmHg 42%
    10:00 +27°C° 0 mm 1 mps 738 mmHg 38%
    11:00 +29°C° 0 mm 1 mps 738 mmHg 34%
    12:00 +30°C° 0 mm 2 mps 737 mmHg 32%
    13:00 +31°C° 0 mm 3 mps 737 mmHg 30%
    14:00 +33°C° 0 mm 3 mps 737 mmHg 28%
    15:00 +34°C° 0 mm 3 mps 736 mmHg 28%
    16:00 +34°C° 0 mm 3 mps 736 mmHg 27%
    17:00 +34°C° 0 mm 3 mps 735 mmHg 27%
    18:00 +31°C° 0.1 mm 3 mps 735 mmHg 32%
    19:00 +29°C° 0.1 mm 3 mps 735 mmHg 37%
    20:00 +27°C° 0.1 mm 3 mps 735 mmHg 42%
    21:00 +26°C° 0.3 mm 3 mps 735 mmHg 46%
    22:00 +25°C° 0.3 mm 3 mps 736 mmHg 50%
    23:00 +25°C° 0.3 mm 4 mps 736 mmHg 54%
    Mostrar más